Flag for Brazil Weather past 2 weeks in Santos, São Paulo, Brazil

Now
70 °F

Sunny.


Feels Like: 70 °F
Forecast: 72 / 88 °F
Wind: 10 mph from Northwest

Location: Sao Paulo Airport

Current Time: May 24, 2015 at 9:23:48 AM

Latest Report: May 24, 2015 at 9:00 AM


Visibility: 10 mi

Pressure: 30.15 "Hg

Humidity: 64%

Dew point: 57 °F

Location of SantosLocation

Historic Weather in Santos — Graph

°F

Santos temperature yesterday

Maximum temperature yesterday: 75 °F (at 12:00 PM)
Minimum temperature yesterday: 63 °F (at 5:00 AM)
Average temperature yesterday: 69 °F

Past Weeks' High & Low Weather Summary

 TemperatureHumidityPressure
High77 °F (May 9, 2:00 PM)100% (May 10, 9:00 PM)30.36 "Hg (May 10, 9:00 PM)
Low45 °F (May 10, 9:00 PM)39% (May 9, 3:00 PM)29.92 "Hg (May 11, 4:00 AM)
Average64 °F78%30.20 "Hg
* Reported May 9 8:00 AM — May 24 8:00 AM, Santos, Weather by CustomWeather, © 2015

Note: Actual official high and low records may vary slightly from our data, if they occured in-between our weather recording intervals... More about our weather records

Advertising

Santos weather history for previous 24 hours

 ConditionsComfort  
Time TempWeatherWind HumidityBarometerVisibility
8:00 AM
Sun, May 24
66 °FSunny.7 mph68%30.12 "Hg10 mi
7:00 AM63 °FSunny.6 mph77%30.09 "Hg10 mi
6:00 AM63 °FSunny.10 mph77%30.09 "Hg10 mi
5:00 AM64 °FPassing clouds.7 mph73%30.07 "HgN/A
4:00 AM64 °FClear.8 mph73%30.07 "Hg10 mi
3:00 AM64 °FClear.7 mph78%30.07 "Hg10 mi
2:00 AM64 °FClear.6 mph78%30.09 "Hg10 mi
1:00 AM66 °FClear.9 mph73%30.09 "Hg10 mi
12:00 AM66 °FClear.7 mph73%30.12 "Hg10 mi
11:00 PM
Sat, May 23
68 °FClear.6 mph69%30.12 "Hg10 mi
10:00 PM68 °FClear.7 mph69%30.15 "Hg10 mi
9:00 PM68 °FClear.6 mph69%30.15 "Hg10 mi
8:00 PM70 °FClear.8 mph64%30.15 "Hg10 mi
7:00 PM70 °FClear.9 mph64%30.15 "Hg10 mi
6:00 PM70 °FClear.10 mph64%30.12 "Hg10 mi
5:00 PM72 °FClear.13 mph57%30.12 "Hg10 mi
4:00 PM73 °FPassing clouds.12 mph57%30.12 "HgN/A
3:00 PM73 °FSunny.12 mph57%30.12 "Hg10 mi
2:00 PM75 °FPassing clouds.12 mph54%30.12 "HgN/A
1:00 PM75 °FPassing clouds.13 mph50%30.15 "HgN/A
12:00 PM75 °FPassing clouds.7 mph54%30.18 "HgN/A
11:00 AM73 °FSunny.7 mph53%30.24 "Hg10 mi
10:00 AM70 °FSunny.6 mph64%30.24 "Hg10 mi
9:00 AM68 °FSunny.5 mph69%30.24 "Hg10 mi
Weather by CustomWeather, © 2015

See weather overviewHow to use our weather pages